Theta_e
325 322 322 322 322 326 327 327 330 329 329 329 324 330 331 332 334 336 335 335 336 336 336 335 339 341 342 336 334 327 332 331 337 335 336 338 331 333 330 334 332 330 331 330
322 322 324 323 325 325 326 327 328 325 325 328 332 332 331 333 333 336 335 336 337 336 338 337 341 345 341 332 328 327 332 329 331 331 338 336 338 335 329 332 327 331 330 329
324 324 326 326 326 326 325 326 325 325 325 324 330 331 331 331 332 332 336 338 338 338 338 339 341 338 332 332 331 326 326 326 327 329 333 331 331 326 330 328 329 328 327 325
322 324 325 324 328 325 329 328 329 329 328 326 328 332 330 330 328 330 331 338 340 338 338 342 334 333 333 334 327 327 328 326 326 327 333 330 324 324 324 323 326 325 323 324
324 326 326 327 329 328 329 329 328 329 325 328 329 331 328 329 328 329 330 329 332 342 339 338 335 336 331 331 330 329 329 327 331 333 332 327 327 326 326 327 326 323 322 324
323 327 326 326 328 329 329 328 325 326 326 329 329 331 331 326 325 325 328 337 340 341 339 337 333 331 330 329 331 333 332 335 334 334 333 331 330 329 327 327 325 324 322 320
329 327 327 327 325 328 326 326 327 329 331 331 328 329 327 327 327 325 329 333 334 336 337 331 331 331 330 330 330 335 335 334 333 333 330 330 328 328 328 326 323 321 320 318
330 329 329 330 328 330 330 326 328 332 334 329 328 331 327 327 327 327 329 332 331 331 331 331 330 329 328 328 331 329 329 329 330 330 329 328 327 324 322 321 321 318 317 315
330 333 331 331 330 328 331 330 327 328 328 329 328 328 327 327 327 327 327 328 329 328 328 330 330 328 328 327 327 326 326 326 325 323 322 321 322 321 319 317 316 315 314 311
331 331 332 332 331 330 329 330 330 328 328 331 330 330 326 328 327 327 327 327 327 328 328 328 327 326 325 325 325 324 324 323 323 322 322 321 320 318 316 315 313 310 309 308
329 329 333 331 332 331 329 330 330 326 324 326 329 328 327 326 327 327 327 327 327 327 329 328 327 326 325 324 324 323 324 323 323 322 321 320 318 316 314 309 308 307 307 307
333 329 333 332 331 331 330 331 326 328 329 329 327 330 325 325 327 326 327 328 327 327 325 325 326 324 323 322 322 323 323 322 321 320 319 317 316 312 307 308 308 308 308 308
330 328 331 331 330 329 331 331 330 327 327 331 331 330 327 328 328 328 328 328 327 324 322 322 322 321 322 322 323 323 323 320 319 318 318 316 313 310 308 308 308 308 308 309
328 326 328 332 329 330 332 332 332 329 330 334 334 331 329 328 327 328 328 328 325 322 321 320 321 322 322 323 323 323 320 319 319 318 316 314 311 309 308 307 308 308 309 309
329 328 332 330 331 332 333 334 333 330 331 332 329 332 329 327 327 329 325 326 324 321 320 320 320 321 322 322 323 322 320 318 317 317 315 311 310 309 309 309 309 309 309 309
328 330 332 332 332 331 333 330 329 330 329 329 330 331 327 327 327 326 325 326 323 321 320 320 320 321 322 321 322 319 319 318 316 315 312 311 309 309 309 309 310 310 309 309
333 328 329 332 332 332 332 333 331 331 330 327 328 328 327 326 328 327 326 325 323 321 319 319 320 322 322 322 321 319 318 317 316 314 311 310 310 308 309 309 309 309 309 308
330 330 328 331 329 332 332 333 332 333 332 330 329 329 328 328 328 327 325 325 322 320 319 319 320 323 322 322 320 318 317 316 315 313 310 309 310 310 310 309 309 309 309 309
326 328 330 332 331 333 333 333 332 331 333 331 330 330 329 329 328 327 325 323 320 320 319 320 322 323 321 320 319 317 316 315 314 311 309 308 309 310 310 309 310 310 310 310
327 326 328 328 332 334 331 331 332 330 334 331 331 330 330 329 325 325 322 322 320 319 319 320 322 322 320 319 318 316 316 314 311 308 309 309 309 310 310 309 310 310 310 311
330 329 327 329 332 330 330 330 331 332 326 331 330 329 329 327 327 324 322 321 321 319 319 320 322 321 319 318 317 315 315 313 310 309 308 308 309 309 310 310 310 311 311 311
330 330 328 327 328 330 330 330 330 330 331 331 330 329 328 326 324 323 322 322 320 319 320 320 321 321 318 317 317 316 316 313 311 310 309 308 309 310 306 309 309 310 311 310
335 329 329 327 326 327 329 328 331 331 331 330 329 328 325 323 323 322 322 321 319 318 320 320 321 321 318 317 317 316 316 312 312 310 309 308 308 310 306 308 307 309 310 310
326 330 324 322 326 328 328 328 329 328 331 329 327 326 324 323 323 322 322 320 317 319 320 320 321 319 318 317 316 316 315 311 309 309 309 308 309 310 306 305 305 305 306 308
324 325 324 323 327 329 329 330 330 331 331 329 327 326 325 323 322 322 320 316 318 320 321 321 320 320 317 317 316 315 314 311 310 309 309 309 309 309 308 308 310 310 308 306
325 321 323 323 326 327 330 331 330 329 329 328 326 324 323 324 323 322 316 316 320 321 321 321 320 319 317 316 315 315 315 311 312 308 309 309 309 309 310 311 311 311 311 309
Wind_Speed
6 6 6 13 7 5 3 6 3 3 5 4 4 10 7 12 20 20 29 29 21 19 16 14 8 9 12 4 14 7 11 3 11 17 10 9 6 7 11 11 15 19 16 17
7 6 15 7 8 5 6 5 2 4 5 9 12 8 6 11 7 6 17 20 17 19 14 11 11 13 13 11 15 8 4 5 10 11 12 11 9 9 11 12 16 14 15 17
4 13 10 6 3 10 4 6 4 1 4 5 6 7 8 8 14 8 13 8 15 17 15 9 11 12 13 10 6 13 8 7 3 8 13 14 12 12 13 14 12 11 10 13
6 18 7 7 5 4 4 3 2 4 4 3 4 2 7 7 10 14 16 7 13 20 17 10 7 6 6 5 10 8 3 14 9 2 9 11 11 16 17 18 13 14 16 12
8 4 6 7 1 3 1 6 8 5 7 7 10 6 7 3 10 9 18 20 6 17 20 14 5 4 1 3 2 8 14 10 4 6 9 15 11 15 18 17 18 16 20 17
7 1 4 5 12 6 3 8 9 6 3 5 5 5 6 4 6 6 17 21 20 18 14 11 2 0 5 5 6 10 11 7 9 10 12 14 17 20 21 22 15 17 18 23
8 6 6 6 9 12 11 8 4 6 5 3 4 6 6 4 8 8 15 22 20 18 13 11 8 2 5 8 9 9 7 11 11 11 15 16 19 21 20 18 16 18 20 22
3 6 10 10 5 6 6 6 5 1 1 2 5 2 3 1 16 27 26 24 22 18 13 5 11 12 6 8 6 8 6 8 6 10 13 12 11 11 10 11 14 18 17 15
4 4 1 14 9 4 5 6 6 5 3 4 3 5 4 17 19 30 30 39 33 30 25 12 14 18 16 15 15 15 16 15 15 13 11 10 9 11 15 18 20 18 19 21
5 4 5 3 7 12 5 2 3 4 2 3 3 1 2 10 10 11 19 26 21 19 17 20 17 16 16 15 17 18 15 15 14 12 11 13 15 19 23 26 26 23 20 18
4 4 6 7 3 3 5 5 5 3 4 4 3 3 3 7 5 7 15 20 17 16 17 18 15 16 17 19 21 20 16 16 14 13 14 17 21 25 28 26 21 22 21 15
3 5 3 7 1 5 2 2 4 4 5 1 4 1 6 5 12 18 18 20 21 20 19 15 16 18 20 20 17 16 17 21 19 19 22 26 24 27 25 21 23 19 19 16
2 2 3 8 7 1 5 1 3 1 4 4 3 2 3 5 8 12 14 15 19 18 18 16 17 19 17 16 16 15 18 22 23 22 23 23 26 25 22 20 19 19 17 18
4 4 7 6 7 4 0 4 1 5 3 2 6 5 6 5 3 10 14 15 17 17 16 16 16 16 16 15 14 15 17 19 18 21 24 25 25 26 20 18 17 18 18 19
5 3 4 4 4 3 6 4 6 5 6 5 6 8 8 8 10 10 9 15 15 15 17 17 17 15 15 15 11 11 14 15 18 21 24 24 25 21 17 20 18 17 18 18
4 0 2 6 7 6 1 4 9 5 6 8 8 3 5 11 9 8 7 12 14 14 14 15 13 13 16 15 10 13 16 18 20 24 24 23 21 17 18 19 19 17 18 18
2 3 3 3 2 2 6 6 6 5 4 8 6 6 14 7 9 6 14 12 11 11 11 12 12 13 15 14 13 14 17 20 23 24 22 24 18 19 17 19 18 19 18 18
4 4 3 2 5 2 5 3 7 13 5 7 10 12 18 17 10 12 9 7 9 9 9 10 12 12 12 10 12 14 18 20 23 22 21 23 15 18 18 17 17 17 18 19
3 4 3 3 2 2 3 4 2 3 1 3 9 11 18 16 14 8 8 7 9 8 10 11 11 10 11 13 14 17 20 20 23 17 20 21 14 18 17 16 16 17 16 18
6 7 5 2 3 5 6 3 4 5 1 3 17 19 21 17 3 3 11 7 8 8 9 10 10 9 14 15 17 18 18 21 21 19 18 16 12 16 17 16 14 15 17 18
3 4 4 2 2 5 6 10 5 3 6 5 17 22 22 6 8 16 11 9 8 8 9 8 8 10 14 16 18 20 17 20 14 14 17 16 13 16 15 13 13 13 13 13
5 5 2 3 2 4 11 3 5 6 3 14 16 15 17 18 19 15 10 8 8 8 7 8 9 8 11 15 18 22 15 16 10 12 14 16 13 14 14 11 10 10 11 13
1 5 5 7 6 7 14 9 11 14 21 20 18 17 21 21 17 12 9 8 9 7 6 7 7 7 10 14 18 20 16 11 12 13 12 12 11 12 15 12 11 8 9 12
4 6 3 4 2 10 15 14 15 16 21 19 18 20 17 19 13 9 7 9 9 5 6 6 5 5 10 15 17 20 18 10 11 12 13 10 11 12 10 13 14 13 12 11
4 2 4 2 4 8 12 17 20 20 20 19 16 15 14 14 10 3 7 6 4 3 6 8 6 5 9 12 15 19 17 8 10 12 12 10 10 11 9 10 13 14 16 13
3 2 4 5 7 10 18 24 24 23 22 17 19 19 15 10 8 2 3 4 2 4 7 6 4 4 8 10 12 16 16 8 9 11 12 10 11 12 11 12 12 12 13 13
Wind_Direction
2 31 283 273 258 242 254 145 94 261 258 15 324 51 13 57 103 129 158 174 184 204 177 157 157 194 178 36 175 156 189 207 314 305 253 236 285 287 302 290 291 290 278 272
1 287 265 242 280 113 94 118 221 282 271 88 77 31 345 35 98 139 173 195 211 201 173 126 104 127 146 71 58 54 126 207 273 279 262 286 291 291 300 291 290 275 274 273
197 253 320 273 16 85 41 61 8 281 348 97 101 36 10 330 354 73 78 190 198 209 175 169 142 116 113 46 23 150 169 199 261 246 273 290 294 302 293 297 292 277 276 275
244 277 224 64 81 114 46 255 38 334 18 70 19 24 355 330 329 356 24 127 208 201 181 184 203 190 322 280 151 128 24 262 340 144 275 278 292 299 304 308 285 286 293 288
271 307 76 68 296 102 318 46 24 4 76 87 356 71 281 336 348 341 345 22 77 185 191 187 214 339 44 40 327 307 324 293 292 325 288 282 294 304 305 296 298 286 290 299
244 168 91 141 51 46 24 40 33 40 65 51 312 112 305 6 315 32 50 83 100 137 149 161 164 96 17 344 307 293 308 319 314 318 303 303 298 295 296 296 296 300 310 320
345 349 343 25 71 18 58 50 2 18 19 186 283 59 239 337 2 43 88 82 88 111 121 111 90 22 338 338 343 360 319 337 321 309 298 297 293 290 294 311 315 322 326 322
53 14 359 326 64 162 62 104 127 92 141 246 350 121 322 223 55 70 72 96 90 92 90 123 55 43 33 45 26 21 25 349 294 288 315 339 342 350 351 346 332 323 326 326
133 61 148 61 22 60 321 41 176 122 55 68 318 328 305 52 59 64 73 82 82 87 87 80 74 75 73 62 50 34 24 30 29 19 17 7 4 357 354 349 343 339 329 331
197 96 37 348 14 35 76 64 40 24 76 96 318 333 276 69 90 81 84 95 98 96 96 88 82 72 57 45 33 22 18 22 18 13 11 8 6 359 352 345 342 344 347 347
105 85 340 42 2 228 356 10 32 112 116 144 173 315 14 138 167 109 115 99 103 86 91 82 73 55 50 35 19 15 22 23 23 17 6 360 357 353 349 351 2 2 1 360
65 112 78 210 291 359 43 66 86 112 296 73 133 294 345 230 138 114 117 99 82 91 85 79 66 45 32 25 23 25 23 16 15 5 1 354 357 359 359 10 11 16 22 25
141 46 68 346 353 28 80 278 152 101 42 119 63 272 265 282 111 99 96 76 89 82 65 57 40 26 28 29 25 23 16 13 9 0 355 359 2 2 4 10 21 27 26 24
83 119 145 175 205 141 326 303 214 112 102 261 171 166 238 302 86 125 82 93 88 81 66 45 38 37 29 29 30 24 20 10 2 359 1 3 5 3 10 16 29 27 25 22
94 102 119 214 119 154 189 227 227 146 153 143 177 165 204 218 207 118 71 97 84 69 55 38 28 27 27 22 22 22 11 5 4 4 6 10 4 6 23 37 31 28 23 23
10 140 87 22 181 180 356 354 100 89 132 77 141 183 194 195 164 125 72 96 79 63 47 25 24 20 17 20 23 16 12 8 8 8 10 7 10 18 19 25 24 25 27 25
76 103 66 298 24 86 25 337 92 86 58 156 187 189 166 201 189 133 113 92 92 63 40 22 19 19 20 23 15 10 9 8 7 2 10 8 16 26 33 29 25 28 27 26
118 90 97 213 26 52 232 339 107 106 79 94 107 161 176 169 147 129 106 95 92 60 35 30 15 15 27 26 10 13 10 11 1 4 13 5 18 20 24 25 30 32 32 30
218 107 66 110 123 332 357 12 29 123 39 245 150 149 157 143 126 127 129 110 86 45 21 24 20 24 28 22 14 9 5 7 359 15 15 12 24 33 32 31 37 32 39 38
58 67 108 87 126 193 232 251 40 84 339 165 150 163 163 148 114 232 137 102 75 35 21 21 14 24 23 19 7 5 14 5 9 30 15 26 42 31 33 35 39 41 43 39
47 31 116 97 145 283 248 257 355 111 230 179 149 147 168 139 134 143 129 90 52 29 17 17 14 20 28 20 3 11 11 7 37 30 27 28 29 25 30 34 38 39 34 36
159 131 133 97 93 301 212 194 169 179 89 143 137 131 125 129 133 126 103 72 38 21 17 19 16 29 28 14 359 7 8 4 19 15 31 15 16 16 21 26 35 42 41 38
12 173 176 172 209 220 181 175 147 136 133 145 144 140 138 134 127 117 94 44 24 16 28 26 16 25 15 10 359 8 9 6 12 25 20 13 21 26 28 37 43 41 34 32
326 156 112 92 283 184 180 169 158 167 155 149 144 147 144 132 127 104 58 12 358 28 27 25 12 11 10 359 2 6 6 20 38 30 23 25 38 30 44 50 51 45 38 37
241 78 111 31 78 121 181 170 165 159 155 159 166 175 165 151 131 88 12 3 10 23 17 10 10 3 10 357 7 5 6 25 24 26 33 37 33 32 50 42 36 38 38 36
2 197 139 209 179 145 167 171 167 163 168 175 170 155 158 174 154 129 44 22 11 357 357 357 15 10 353 4 359 352 1 7 21 41 41 39 44 43 46 33 32 37 35 32